Overview Statistics Trail Chart Weather Telemetry Raw packets
 

This is the latest recevied weather packets stored in our database for station/object N0NB. If no packets are shown the sender has not sent any weather packets the latest 10 day(s).

<< 44 45 46 47 48 49 50 >>
Time Temp. Humidity Pressure Rain* Wind** Luminosity Snow
1787974217 23.33° C 72% 1015.3 hPa 0 mm - 0 W/m² -
1787973617 23.33° C 72% 1015.3 hPa 0 mm - 0 W/m² -
1787973017 23.33° C 73% 1015.2 hPa 0 mm - 0 W/m² -
1787972416 23.33° C 73% 1015.2 hPa 0 mm - 0 W/m² -
1787971816 23.89° C 74% 1015.2 hPa 0 mm - 0 W/m² -
1787971216 23.89° C 73% 1015.1 hPa 0 mm - 0 W/m² -
1787970616 23.89° C 74% 1015.1 hPa 0 mm - 0 W/m² -
1787970016 23.89° C 76% 1014.9 hPa 0 mm - 0 W/m² -
1787969416 23.33° C 78% 1015 hPa 0 mm - 0 W/m² -
1787968816 23.33° C 79% 1014.9 hPa 0 mm - 0 W/m² -
1787968216 23.33° C 80% 1014.5 hPa 0 mm - 0 W/m² -
1787967616 23.89° C 79% 1014.6 hPa 0 mm - 0 W/m² -
1787967016 24.44° C 77% 1014.5 hPa 0 mm - 0 W/m² -
1787966416 24.44° C 76% 1014.4 hPa 0 mm - 0 W/m² -
1787965816 25° C 75% 1014.4 hPa 0 mm - 0 W/m² -
1787965216 25.56° C 73% 1014.5 hPa 0 mm - 3 W/m² -
1787964616 26.67° C 70% 1014.6 hPa 0 mm - 13 W/m² -
1787964016 27.22° C 68% 1014.8 hPa 0 mm - 22 W/m² -
1787963416 27.78° C 67% 1014.8 hPa 0 mm - 40 W/m² -
1787962816 28.33° C 66% 1014.9 hPa 0 mm - 65 W/m² -
1787962216 28.33° C 65% 1015 hPa 0 mm - 92 W/m² -
1787961623 28.89° C 65% 1015.2 hPa 0 mm - 121 W/m² -
1787961016 28.89° C 63% 1015.3 hPa 0 mm - 155 W/m² -
1787960416 29.44° C 62% 1015.5 hPa 0 mm - 189 W/m² -
1787959816 29.44° C 62% 1015.4 hPa 0 mm - 218 W/m² -

* Rain latest hour (hover to see other rain measurements)
** Current wind speed in m/s (hover to see current wind gust speed)